[[{"header":{"parameterUnit":"m.s-1","parameterCategory":1,"la1":30.2991,"la2":30.254,"lo1":-89.0895,"lo2":-89.0444,"dy":0.0017,"dx":0.0017,"nx":28,"ny":28,"refTime":"2025-08-04T09:00:00:Z","depth":0,"parameterNumber":2,"parameterNumberName":"U-component_of_WINDS"},"data":[0,0,0,0,0,0,0,0,0,0,0,0,0,0,0,0,0,0,0,0,0,0,0,0,0,0,0,0,0,0,0,0,0,0,0,0,0,0,0,0,0,0,0,0,0,0,0,0,0,0,0,0,0,0,0,0,0,0,-1.1218,-1.1219,0,-1.1284,-1.1284,-1.1285,-1.126,-1.1258,-1.1257,-1.1255,-1.1325,-1.1328,-1.1331,0,0,0,0,0,0,0,0,0,0,0,0,0,-1.1072,-1.1075,-1.1218,-1.1219,-1.1219,-1.1283,-1.1284,-1.1285,-1.126,-1.1258,-1.1256,-1.1255,-1.1324,-1.1327,-1.1331,0,0,0,0,0,0,0,0,0,0,0,0,0,-1.1136,-1.1076,-1.1218,-1.1215,-1.1215,-1.1283,-1.1284,-1.1285,-1.126,-1.1258,-1.1256,-1.1254,-1.1322,-1.1327,-1.1332,-1.1408,0,0,-1.1347,-1.1349,0,0,0,0,0,0,0,0,-1.1133,-1.1142,-1.1214,-1.1215,-1.1215,-1.1261,-1.1258,-1.1327,-1.1261,-1.1243,-1.1255,-1.1253,-1.1306,-1.1312,-1.1329,-1.1411,-1.1414,-1.1347,-1.135,-1.1352,-1.1354,0,0,0,0,0,0,0,-1.1128,-1.1139,-1.1244,-1.1215,-1.1216,-1.121,-1.1217,-1.1271,-1.1286,-1.1245,-1.1243,-1.1251,-1.1305,-1.1324,-1.1331,-1.1415,-1.1347,-1.1352,-1.1355,-1.1357,-1.1563,-1.1565,0,0,0,0,0,0,-1.1123,-1.1135,-1.1242,-1.1246,-1.1168,-1.1215,-1.1222,-1.1249,-1.1286,-1.1289,-1.1253,-1.1249,-1.1317,-1.1325,-1.1333,-1.1424,-1.1352,-1.1357,-1.136,-1.156,-1.1563,-1.1566,0,0,0,0,0,0,-1.112,-1.1133,-1.1239,-1.119,-1.1203,-1.122,-1.125,-1.1251,-1.127,-1.1292,-1.1295,-1.1269,-1.1316,-1.1326,-1.1389,-1.1426,-1.1359,-1.1364,-1.1557,-1.1561,-1.1565,-1.1607,0,0,0,0,0,0,-1.1116,-1.1132,-1.1161,-1.1191,-1.1206,-1.1294,-1.1252,-1.1254,-1.1278,-1.1275,-1.1308,-1.1312,-1.1315,-1.1382,-1.1394,-1.1432,-1.1368,-1.1554,-1.1559,-1.1563,-1.1603,-1.1612,-1.162,0,0,0,0,0,-1.1111,-1.1171,-1.1163,-1.1176,-1.1242,-1.1296,-1.1305,-1.1307,-1.1282,-1.1311,-1.1325,-1.131,-1.142,-1.1389,-1.1402,-1.1442,-1.1552,-1.1557,-1.1563,-1.1599,-1.161,-1.162,0,0,0,0,0,0,-1.1146,-1.1175,-1.1166,-1.1237,-1.1264,-1.1292,-1.1329,-1.1319,-1.1354,-1.135,-1.1351,-1.1359,-1.1424,-1.1439,-1.1404,-1.1517,-1.1482,-1.1491,-1.1505,-1.1516,-1.1524,-1.152,-1.1372,0,0,0,0,0,-1.1162,-1.1203,-1.1226,-1.1287,-1.1301,-1.1313,-1.1336,-1.1335,-1.1364,-1.1375,-1.1394,-1.1423,-1.1463,-1.149,-1.1529,-1.1605,-1.1612,-1.1638,-1.1647,-1.1654,-1.1662,-1.1703,-1.1715,-1.1585,-1.1585,-1.1584,0,0,-1.1196,-1.1216,-1.1242,-1.1294,-1.1315,-1.1358,-1.1323,-1.137,-1.1401,-1.1383,-1.1443,-1.1458,-1.149,-1.156,-1.1591,-1.1574,-1.1699,-1.1661,-1.1667,-1.1671,-1.171,-1.1722,-1.1733,-1.1589,-1.1588,-1.1587,0,0,-1.1278,-1.1298,-1.1351,-1.1372,-1.1404,-1.1411,-1.1424,-1.1453,-1.1461,-1.1522,-1.1508,-1.1547,-1.1617,-1.164,-1.1661,-1.1752,-1.174,-1.1765,-1.1811,-1.185,-1.1861,-1.187,-1.1902,-1.1914,-1.1772,-1.1772,-1.1772,0,-1.1316,-1.138,-1.1379,-1.1427,-1.145,-1.1434,-1.1487,-1.1508,-1.1552,-1.1568,-1.1548,-1.1636,-1.1657,-1.1731,-1.1753,-1.1771,-1.1785,-1.1761,-1.1859,-1.1868,-1.1877,-1.1908,-1.192,-1.1775,-1.1775,-1.1774,-1.1774,0,-1.1425,-1.1469,-1.1508,-1.1549,-1.1576,-1.1627,-1.1634,-1.1662,-1.1658,-1.1668,-1.1729,-1.1753,-1.1796,-1.1814,-1.1811,-1.1888,-1.1877,-1.1858,-1.1823,-1.1892,-1.1921,-1.1933,-1.1779,-1.1778,-1.1777,-1.1776,0,0,-1.1533,-1.1572,-1.1586,-1.1604,-1.1637,-1.1672,-1.1721,-1.1762,-1.1787,-1.1817,-1.1859,-1.1918,-1.1901,-1.1925,-1.1924,-1.1959,-1.2029,-1.1936,-1.1937,-1.1953,-1.2115,-1.213,-1.2143,-1.2021,-1.2023,-1.2025,-1.2113,0,-1.1618,-1.1704,-1.1705,-1.1784,-1.1825,-1.181,-1.1853,-1.1878,-1.1888,-1.1925,-1.1936,-1.1978,-1.1952,-1.1966,-1.2,-1.2013,-1.2062,-1.2007,-1.2061,-1.2063,-1.2053,-1.2158,-1.2174,-1.2255,-1.2124,-1.2126,-1.2127,0,-1.173,-1.1762,-1.1846,-1.1872,-1.189,-1.1928,-1.1966,-1.2001,-1.2029,-1.2034,-1.206,-1.2054,-1.2105,-1.2068,-1.2138,-1.2101,-1.2122,-1.2132,-1.2136,-1.2141,-1.21,-1.2167,-1.2281,-1.2294,-1.2145,-1.2144,-1.2143,0,-1.18,-1.1865,-1.1923,-1.1939,-1.1972,-1.1999,-1.2014,-1.204,-1.2065,-1.2098,-1.2114,-1.2152,-1.2174,-1.2204,-1.2209,-1.2181,-1.228,-1.2243,-1.2285,-1.2285,-1.2307,-1.2306,-1.2427,-1.2321,-1.2321,-1.232,-1.232,0,-1.1896,-1.1948,-1.1955,-1.1991,-1.2048,-1.2048,-1.2105,-1.2118,-1.2141,-1.2179,-1.2169,-1.2205,-1.2209,-1.2247,-1.2251,-1.2308,-1.2318,-1.2324,-1.2324,-1.2325,-1.2324,-1.234,-1.2334,-1.2324,-1.2323,-1.2322,-1.2322,0,-1.1985,-1.1991,-1.2054,-1.2079,-1.2086,-1.2128,-1.215,-1.2184,-1.2192,-1.2241,-1.2252,-1.2266,-1.231,-1.2317,-1.2369,-1.2371,-1.244,-1.2435,-1.2431,-1.243,-1.2472,-1.2468,-1.2608,-1.2626,-1.2508,-1.2509,-1.251,0,-1.2045,-1.2085,-1.2114,-1.2138,-1.2154,-1.2194,-1.2218,-1.222,-1.2246,-1.2281,-1.2311,-1.2353,-1.2387,-1.2458,-1.2473,-1.2512,-1.2508,-1.2554,-1.2514,-1.2513,-1.2509,-1.2507,-1.2511,-1.2562,-1.2563,-1.2564,-1.2565,0,-1.2153,-1.2154,-1.2189,-1.2226,-1.2256,-1.2285,-1.2312,-1.2333,-1.2338,-1.2368,-1.2412,-1.2438,-1.249,-1.2533,-1.2572,-1.2588,-1.2578,-1.2577,-1.2589,-1.2591,-1.2587,-1.259,-1.2452,-1.2575,-1.2574,-1.2573,-1.2572,-1.2572,-1.223,-1.2264,-1.2289,-1.2329,-1.2349,-1.2375,-1.2409,-1.2421,-1.2457,-1.2499,-1.2498,-1.2546,-1.2573,-1.2624,-1.2643,-1.2681,-1.2666,-1.2683,-1.2688,-1.2692,-1.2696,-1.258,-1.2688,-1.2688,-1.2687,-1.2687,-1.2687,0,-1.2337,-1.2352,-1.2388,-1.2427,-1.2458,-1.2444,-1.2474,-1.2502,-1.2544,-1.2569,-1.2603,-1.2653,-1.2694,-1.2711,-1.2752,-1.2779,-1.2775,-1.2789,-1.2788,-1.2792,-1.2707,-1.2693,-1.2792,-1.2792,-1.2791,-1.2791,-1.2791,-1.2791,-1.2396,-1.2453,-1.2457,-1.2523,-1.2539,-1.2585,-1.2603,-1.2627,-1.2647,-1.2704,-1.2737,-1.2748,-1.277,-1.2812,-1.2849,-1.2853,-1.2868,-1.2885,-1.2887,-1.2808,-1.2798,-1.2787,-1.2774,-1.2888,-1.2888,-1.2968,-1.2969,-1.297]},{"header":{"parameterUnit":"m.s-1","parameterCategory":1,"la1":30.2991,"la2":30.254,"lo1":-89.0895,"lo2":-89.0444,"dy":0.0017,"dx":0.0017,"nx":28,"ny":28,"refTime":"2025-08-04T09:00:00:Z","depth":0,"parameterNumber":3,"parameterNumberName":"V-component_of_WINDS"},"data":[0,0,0,0,0,0,0,0,0,0,0,0,0,0,0,0,0,0,0,0,0,0,0,0,0,0,0,0,0,0,0,0,0,0,0,0,0,0,0,0,0,0,0,0,0,0,0,0,0,0,0,0,0,0,0,0,0,0,-0.0808,-0.0809,0,-0.0861,-0.0862,-0.0862,-0.089,-0.089,-0.089,-0.089,-0.0948,-0.095,-0.0951,0,0,0,0,0,0,0,0,0,0,0,0,0,-0.0736,-0.0737,-0.0808,-0.0809,-0.081,-0.0861,-0.0862,-0.0863,-0.089,-0.089,-0.089,-0.089,-0.0948,-0.095,-0.0951,0,0,0,0,0,0,0,0,0,0,0,0,0,-0.0776,-0.0737,-0.0808,-0.0829,-0.0832,-0.0861,-0.0862,-0.0863,-0.089,-0.089,-0.089,-0.089,-0.0947,-0.0949,-0.0952,-0.0965,0,0,-0.0959,-0.096,0,0,0,0,0,0,0,0,-0.0774,-0.0779,-0.0826,-0.0828,-0.0831,-0.0869,-0.0858,-0.0897,-0.089,-0.0868,-0.089,-0.089,-0.0922,-0.0926,-0.0936,-0.0968,-0.097,-0.0959,-0.096,-0.0961,-0.0962,0,0,0,0,0,0,0,-0.0771,-0.0777,-0.0829,-0.0826,-0.083,-0.0838,-0.0844,-0.0865,-0.0894,-0.087,-0.0872,-0.0878,-0.0924,-0.0934,-0.0938,-0.0971,-0.0959,-0.0961,-0.0962,-0.0963,-0.1017,-0.1017,0,0,0,0,0,0,-0.0764,-0.0774,-0.0828,-0.0831,-0.0802,-0.0839,-0.0846,-0.0857,-0.0894,-0.09,-0.0878,-0.0879,-0.093,-0.0935,-0.094,-0.0959,-0.0961,-0.0963,-0.0965,-0.1017,-0.1017,-0.1018,0,0,0,0,0,0,-0.0762,-0.0769,-0.0826,-0.0803,-0.0811,-0.084,-0.0853,-0.0858,-0.0868,-0.09,-0.0906,-0.0883,-0.093,-0.0937,-0.0959,-0.0961,-0.0964,-0.0966,-0.1017,-0.1017,-0.1017,-0.0996,0,0,0,0,0,0,-0.076,-0.0768,-0.0772,-0.0803,-0.0812,-0.0842,-0.0853,-0.0859,-0.0872,-0.0874,-0.0906,-0.0912,-0.0931,-0.0955,-0.0961,-0.0964,-0.0968,-0.1017,-0.1017,-0.1017,-0.0996,-0.0995,-0.0994,0,0,0,0,0,-0.0757,-0.0764,-0.0772,-0.0778,-0.0818,-0.0842,-0.0847,-0.0868,-0.0872,-0.0877,-0.0898,-0.0911,-0.096,-0.0957,-0.0964,-0.0968,-0.1017,-0.1017,-0.1017,-0.0997,-0.0995,-0.0994,0,0,0,0,0,0,-0.0734,-0.0769,-0.0778,-0.0794,-0.0815,-0.0846,-0.0853,-0.0865,-0.0886,-0.0887,-0.0914,-0.0921,-0.094,-0.0957,-0.0953,-0.0984,-0.099,-0.0992,-0.0972,-0.0971,-0.097,-0.0966,-0.097,0,0,0,0,0,-0.0731,-0.0746,-0.0776,-0.0788,-0.0798,-0.0824,-0.0835,-0.0849,-0.0872,-0.0881,-0.0903,-0.0926,-0.0947,-0.096,-0.0981,-0.0999,-0.1007,-0.1006,-0.1004,-0.1003,-0.1004,-0.1017,-0.1017,-0.1018,-0.1018,-0.1018,0,0,-0.0724,-0.0745,-0.0753,-0.0784,-0.0801,-0.0818,-0.0831,-0.0848,-0.0861,-0.0884,-0.0906,-0.0923,-0.095,-0.097,-0.098,-0.0984,-0.1006,-0.1004,-0.1002,-0.1004,-0.1017,-0.1017,-0.1017,-0.1018,-0.1018,-0.1018,0,0,-0.0721,-0.0738,-0.075,-0.0767,-0.0793,-0.081,-0.0813,-0.0843,-0.0855,-0.0877,-0.0895,-0.0912,-0.0946,-0.0965,-0.098,-0.0984,-0.0998,-0.0991,-0.0985,-0.0996,-0.0996,-0.0996,-0.0999,-0.0999,-0.0992,-0.0992,-0.0992,0,-0.071,-0.0734,-0.0755,-0.0771,-0.0785,-0.0805,-0.0819,-0.0835,-0.0867,-0.0876,-0.088,-0.0925,-0.0945,-0.097,-0.0971,-0.0982,-0.0987,-0.0987,-0.0994,-0.0995,-0.0995,-0.0998,-0.0998,-0.0991,-0.0991,-0.0991,-0.0991,0,-0.072,-0.0737,-0.0744,-0.0773,-0.0787,-0.0802,-0.0826,-0.0839,-0.0852,-0.087,-0.0893,-0.0917,-0.0944,-0.0951,-0.0964,-0.0979,-0.098,-0.0989,-0.0996,-0.0993,-0.0996,-0.0998,-0.0989,-0.099,-0.099,-0.099,0,0,-0.0703,-0.0744,-0.0746,-0.076,-0.079,-0.0804,-0.0821,-0.0845,-0.0856,-0.0878,-0.0893,-0.0922,-0.093,-0.0947,-0.0963,-0.0973,-0.0976,-0.098,-0.0982,-0.0979,-0.0995,-0.0988,-0.0989,-0.0985,-0.0986,-0.0986,-0.0993,0,-0.0705,-0.0733,-0.0753,-0.0774,-0.0791,-0.0811,-0.0826,-0.0847,-0.0864,-0.0882,-0.0902,-0.0922,-0.0931,-0.0941,-0.0952,-0.0973,-0.098,-0.0973,-0.1001,-0.1002,-0.0994,-0.0991,-0.0984,-0.0989,-0.0994,-0.0994,-0.0994,0,-0.071,-0.073,-0.0752,-0.0782,-0.0789,-0.0802,-0.0827,-0.0843,-0.0868,-0.088,-0.0898,-0.0914,-0.0934,-0.094,-0.0968,-0.0963,-0.0976,-0.0989,-0.099,-0.0993,-0.0998,-0.0995,-0.0991,-0.0992,-0.0996,-0.0996,-0.0996,0,-0.0696,-0.0728,-0.0746,-0.0758,-0.0792,-0.0801,-0.0816,-0.0841,-0.0855,-0.0877,-0.0887,-0.0911,-0.0925,-0.0945,-0.0968,-0.0969,-0.0995,-0.1002,-0.1007,-0.1006,-0.1011,-0.1011,-0.101,-0.1019,-0.1019,-0.1019,-0.1019,0,-0.0695,-0.0709,-0.0741,-0.0752,-0.0768,-0.0791,-0.0807,-0.0824,-0.0846,-0.0863,-0.0883,-0.0898,-0.0927,-0.0947,-0.0965,-0.0987,-0.0993,-0.1004,-0.1009,-0.1002,-0.1001,-0.1011,-0.1012,-0.1019,-0.1019,-0.1019,-0.1019,0,-0.0682,-0.0704,-0.0725,-0.0756,-0.0764,-0.0775,-0.0802,-0.0815,-0.0833,-0.0853,-0.086,-0.0889,-0.0913,-0.0938,-0.097,-0.0983,-0.1004,-0.1011,-0.0995,-0.0998,-0.1002,-0.1001,-0.1008,-0.1011,-0.1017,-0.1017,-0.1017,0,-0.0681,-0.0691,-0.0723,-0.0735,-0.0749,-0.0767,-0.0781,-0.0806,-0.082,-0.085,-0.0859,-0.0884,-0.0905,-0.0943,-0.0968,-0.0993,-0.1001,-0.1002,-0.1005,-0.0998,-0.1002,-0.1001,-0.1003,-0.1001,-0.1,-0.1,-0.1,0,-0.0676,-0.0686,-0.0705,-0.0728,-0.0744,-0.0763,-0.0784,-0.0792,-0.0821,-0.0836,-0.086,-0.0876,-0.0909,-0.0935,-0.0963,-0.0981,-0.0996,-0.0999,-0.1002,-0.0995,-0.0986,-0.0992,-0.0993,-0.0999,-0.0999,-0.0999,-0.0999,-0.0999,-0.0669,-0.068,-0.0704,-0.0724,-0.0742,-0.0761,-0.0774,-0.0794,-0.0814,-0.0841,-0.0855,-0.0879,-0.0906,-0.0945,-0.0963,-0.0983,-0.0988,-0.0991,-0.0992,-0.0993,-0.0992,-0.0982,-0.0989,-0.0989,-0.0989,-0.0989,-0.0989,0,-0.0666,-0.0682,-0.0701,-0.0728,-0.0745,-0.0756,-0.078,-0.0793,-0.0814,-0.0836,-0.0857,-0.0885,-0.091,-0.0937,-0.0964,-0.0975,-0.0983,-0.0981,-0.0981,-0.0985,-0.0986,-0.0981,-0.0975,-0.0975,-0.0975,-0.0975,-0.0975,-0.0975,-0.0666,-0.0685,-0.0698,-0.0726,-0.0744,-0.0766,-0.0779,-0.0797,-0.0815,-0.0845,-0.0865,-0.0882,-0.0908,-0.0936,-0.096,-0.0968,-0.0977,-0.0974,-0.0983,-0.0984,-0.0985,-0.0986,-0.0982,-0.0975,-0.0975,-0.0981,-0.0981,-0.0981]}]]